Location: Usti nad Labem
(50.6670°N, 14.0330°E)
Time: 23:31:03
(UTC+01:00)

ISS - Visible Passes

Search period start: 12 February 2016 00:00
Search period end: 22 February 2016 00:00
Orbit: 399 x 407 km, 51.6° (Epoch: 12 February)

Date Brightness Start Highest point End Pass type
(mag) Time Alt. Az. Time Alt. Az. Time Alt. Az.
12 Feb -3.3 18:20:54 10° W 18:24:09 72° N 18:26:13 20° E visible
12 Feb -0.9 19:57:24 10° WNW 19:58:51 24° W 19:58:51 24° W visible
13 Feb -3.4 19:04:40 10° WNW 19:07:56 78° SSW 19:08:22 63° SE visible
14 Feb -3.4 18:11:57 10° WNW 18:15:13 84° N 18:17:55 14° E visible
14 Feb -1.4 19:48:31 10° W 19:50:33 27° WSW 19:50:33 27° WSW visible
15 Feb -2.7 18:55:43 10° W 18:58:53 50° SSW 19:00:10 29° SE visible
16 Feb -3.2 18:02:57 10° WNW 18:06:12 72° SSW 18:09:26 10° ESE visible
16 Feb -1.1 19:39:50 10° W 19:42:15 19° SW 19:42:30 19° SSW visible
17 Feb -1.6 18:46:47 10° W 18:49:41 30° SSW 18:52:18 12° SSE visible
18 Feb -2.3 17:53:55 10° W 17:57:03 45° SSW 18:00:10 10° SE visible
18 Feb -0.2 19:32:14 10° SW 19:32:51 10° SW 19:33:27 10° SSW visible
19 Feb -0.6 18:38:08 10° W 18:40:20 17° SW 18:42:32 10° S visible
